Regional Weather Roundup
Issued by NWS

Home | Current Version | Previous Version | Text Only | Print | Product List | Glossary Off
Versions: 1 2 3 4 5 6 7 8 9 10 11 12 13 14 15 16 17 18 19 20 21 22 23 24 25 26 27 28 29 30 31 32 33 34 35 36 37 38 39 40 41 42 43 44 45 46 47 48 49 50

000
ASUS45 KABQ 270101
RWRNM
NEW MEXICO REGIONAL WEATHER ROUNDUP
NATIONAL WEATHER SERVICE ALBUQUERQUE NM
700 PM MDT FRI MAY 26 2017

NOTE: "FAIR" MEANS FEW OR NO CLOUDS BELOW 12,000 FEET AGL WITH NO
       SIGNIFICANT WEATHER OR OBSTRUCTIONS TO VISION.

      THIS PRODUCT IS RELEASED AS TWO VERSIONS.  ONE VERSION NEAR
      THE TOP OF THE HOUR CONTAINING PRELIMINARY DATA FROM ALBUQUERQUE
      AND OTHER STATIONS.  A FINAL VERSION WITH ADDITIONAL DATA IS
      ISSUED ABOUT 10 MINUTES AFTER THE HOUR.

NMZ501-503-504-510>518-270200-
NORTHWEST PLATEAU/NORTHCENTRAL MOUNTAINS

CITY           SKY/WX    TMP DP  RH WIND       PRES   REMARKS
FARMINGTON     FAIR      77   8   7 SW18      29.88S
LOS ALAMOS     FAIR      73  10   9 W17G32    30.02R
SANTA FE       FAIR      74  12   9 W14       29.94S
TAOS           FAIR      72  16  12 W22G29    29.99F
ANGEL FIRE     FAIR      61  15  16 W17G24    30.08S

$$
NMZ402-403-502-505>509-270200-
WESTCENTRAL MOUNTAINS/SOUTHWEST MOUNTAINS

CITY           SKY/WX    TMP DP  RH WIND       PRES   REMARKS
GALLUP         FAIR      73  10   9 SW18G33   30.01R
GRANTS         FAIR      74  11   9 W18G24    30.03S
SILVER CITY    FAIR      80  18   9 W16G26    30.01S

$$
NMZ407-409-411-412-270200-
SOUTHERN DESERTS

CITY           SKY/WX    TMP DP  RH WIND       PRES   REMARKS
DEMING         FAIR      88  22   9 W20G33    29.92S
LAS CRUCES     FAIR      88  25  10 SW21G26   29.95R
ALAMOGORDO     FAIR      88  23   9 SW17G29   29.91S
T OR C         LGT RAIN  86  17   8 W18G29    29.92R

$$
NMZ519>523-270200-
CENTRAL VALLEYS/CENTRAL HIGHLANDS

CITY           SKY/WX    TMP DP  RH WIND       PRES   REMARKS
ALBUQUERQUE    FAIR      84   5   5 W23G29    29.89S
DOUBLE EAGLE   MOSUNNY   81  12   7 SW26G35   29.93S
MORIARTY ARPT  FAIR      77  19  11 W7        29.97F
CLINES CORNERS FAIR      71  15  11 W16G23    30.02S
BELEN          FAIR      83  11   6 SW24      29.90R
SOCORRO        FAIR      86  14   7 SW20G26   29.89R

$$
NMZ524>526-539-540-270200-
SOUTHCENTRAL MOUNTAINS

CITY           SKY/WX    TMP DP  RH WIND       PRES   REMARKS
RUIDOSO        NOT AVBL

$$
NMZ527>531-270200-
NORTHEAST HIGHLANDS/NORTHEAST PLAINS

CITY           SKY/WX    TMP DP  RH WIND       PRES   REMARKS
LAS VEGAS      FAIR      74  14  10 SW18G28   29.98F
RATON          FAIR      74  18  12 W16       29.90R
CLAYTON        FAIR      75  36  24 SE9       29.86F

$$
NMZ532>537-270200-
EASTCENTRAL PLAINS

CITY           SKY/WX    TMP DP  RH WIND       PRES   REMARKS
SANTA ROSA     FAIR      85  21   9 SW17      29.85S
TUCUMCARI      FAIR      88  21   8 SW16      29.79S
CANNON AFB     NOT AVBL
CLOVIS AIRPORT FAIR      86  25  10 S14G22    29.87S

$$
NMZ028-029-538-270200-
SOUTHEAST PLAINS

CITY           SKY/WX    TMP DP  RH WIND       PRES   REMARKS
ROSWELL        FAIR      92  23   8 SW17      29.82S
ARTESIA        FAIR      91  28  10 SW17G25   29.85R
CARLSBAD       FAIR      92  28  10 SW18      29.85S
HOBBS          FAIR      90  21   8 SW15      29.89S


$$



USA.gov is the U.S. government's official web portal to all federal, state and local government web resources and services.